Stetsonville, WI

4:42 PM CST on February 08, 2016 (GMT -0600)
Taylor County

Weather History for KMDZ - October, 2011

Change the Weather History Date:

Monday, October 17, 2011

  Actual Average Record
Temperature  
Mean Temperature 47 °F -  
Max Temperature 55 °F 53 °F 79 °F (1956)
Min Temperature 39 °F 33 °F 14 °F (1952)
Degree Days  
Heating Degree Days 18    
Moisture  
Dew Point 29 °F    
Average Humidity 51    
Maximum Humidity 70    
Minimum Humidity 31    
Precipitation  
Precipitation 0.00 in - - ()
Sea Level Pressure  
Sea Level Pressure 29.69 in    
Wind  
Wind Speed 16 mph (West)    
Max Wind Speed 25 mph    
Max Gust Speed 32 mph    
Visibility 10 miles    
Events      
Averages and records for this station are not official NWS values.
T = Trace of Precipitation, MM = Missing Value Source: NWS Daily Summary

Daily Weather History Graph

Daily Weather History Graph

Search for Another Location

Airport or City:

Trip Planner

Search our weather history database for the weather conditions in past years. The results will help you decide how hot, cold, wet, or windy it might be!

Date:

Astronomy

Oct. 17, 2011 Rise Set
Actual Time 7:19 AM CDT 6:13 PM CDT
Civil Twilight 6:49 AM CDT 6:42 PM CDT
Nautical Twilight 6:15 AM CDT 7:16 PM CDT
Astronomical Twilight 5:41 AM CDT 7:50 PM CDT
Moon 9:43 PM CDT (10/17) 12:37 PM CDT (10/17)
Length of Visible Light 11h 53m
Length of Day
10h 53m
Waning Gibbous, 74% of the Moon is Illuminated
Oct 17
Waning Gibbous
Oct 19
Last Quarter
Oct 26
New
Nov 2
First Quarter
Nov 10
Full

Hourly Weather History & Observations

Time (CDT) Temp. Windchill Dew Point Humidity Pressure Visibility Wind Dir Wind Speed Gust Speed Precip Events Conditions
12:15 AM 42.8 °F 35.4 °F 30.2 °F 61% 29.69 in 10.0 mi West 15.0 mph 20.7 mph N/A   Unknown
12:35 AM 42.8 °F 35.4 °F 30.2 °F 61% 29.68 in 10.0 mi West 15.0 mph 26.5 mph N/A   Unknown
1:15 AM 42.8 °F 35.8 °F 30.2 °F 61% 29.68 in 10.0 mi West 13.8 mph 21.9 mph N/A   Unknown
1:35 AM 42.8 °F 35.8 °F 30.2 °F 61% 29.68 in 10.0 mi West 13.8 mph 21.9 mph N/A   Unknown
1:55 AM 42.8 °F 35.8 °F 30.2 °F 61% 29.68 in 10.0 mi West 13.8 mph 23.0 mph N/A   Unknown
2:15 AM 42.8 °F 35.4 °F 30.2 °F 61% 29.68 in 10.0 mi West 15.0 mph 20.7 mph N/A   Unknown
2:35 AM 42.8 °F 34.5 °F 30.2 °F 61% 29.68 in 10.0 mi West 18.4 mph 23.0 mph N/A   Unknown
3:15 AM 42.8 °F 34.8 °F 30.2 °F 61% 29.68 in 10.0 mi West 17.3 mph 24.2 mph N/A   Unknown
3:35 AM 42.8 °F 35.4 °F 30.2 °F 61% 29.68 in 10.0 mi West 15.0 mph 19.6 mph N/A   Unknown
3:55 AM 42.8 °F 35.4 °F 30.2 °F 61% 29.68 in 10.0 mi West 15.0 mph 24.2 mph N/A   Unknown
4:15 AM 41.0 °F 33.5 °F 30.2 °F 65% 29.68 in 10.0 mi West 13.8 mph 23.0 mph N/A   Unknown
4:35 AM 41.0 °F 33.1 °F 30.2 °F 65% 29.68 in 10.0 mi West 15.0 mph 19.6 mph N/A   Unknown
4:55 AM 41.0 °F 33.1 °F 30.2 °F 65% 29.68 in 10.0 mi West 15.0 mph 20.7 mph N/A   Unknown
5:15 AM 41.0 °F 33.1 °F 30.2 °F 65% 29.68 in 10.0 mi West 15.0 mph 25.3 mph N/A   Unknown
5:35 AM 39.2 °F 30.2 °F 30.2 °F 70% 29.68 in 10.0 mi West 17.3 mph 21.9 mph N/A   Unknown
5:55 AM 39.2 °F 30.5 °F 30.2 °F 70% 29.68 in 10.0 mi West 16.1 mph 20.7 mph N/A   Unknown
6:15 AM 39.2 °F 30.8 °F 30.2 °F 70% 29.68 in 10.0 mi West 15.0 mph 24.2 mph N/A   Unknown
6:35 AM 39.2 °F 29.8 °F 30.2 °F 70% 29.67 in 10.0 mi West 18.4 mph 25.3 mph N/A   Unknown
6:55 AM 39.2 °F 30.8 °F 30.2 °F 70% 29.67 in 10.0 mi West 15.0 mph 25.3 mph N/A   Unknown
7:15 AM 39.2 °F 30.2 °F 30.2 °F 70% 29.67 in 10.0 mi West 17.3 mph 23.0 mph N/A   Unknown
7:35 AM 39.2 °F 30.8 °F 30.2 °F 70% 29.67 in 10.0 mi West 15.0 mph 25.3 mph N/A   Unknown
7:55 AM 39.2 °F 30.2 °F 30.2 °F 70% 29.68 in 10.0 mi West 17.3 mph 24.2 mph N/A   Unknown
8:15 AM 39.2 °F 29.6 °F 30.2 °F 70% 29.68 in 10.0 mi West 19.6 mph 26.5 mph N/A   Unknown
8:35 AM 41.0 °F 31.9 °F 30.2 °F 65% 29.68 in 10.0 mi West 19.6 mph 29.9 mph N/A   Unknown
8:55 AM 42.8 °F 33.8 °F 30.2 °F 61% 29.68 in 10.0 mi West 21.9 mph 28.8 mph N/A   Unknown
9:15 AM 42.8 °F 34.8 °F 30.2 °F 61% 29.68 in 10.0 mi West 17.3 mph 29.9 mph N/A   Unknown
9:35 AM 44.6 °F 36.4 °F 30.2 °F 57% 29.68 in 10.0 mi West 20.7 mph 25.3 mph N/A   Unknown
9:55 AM 44.6 °F 37.4 °F 30.2 °F 57% 29.70 in 10.0 mi West 16.1 mph 26.5 mph N/A   Unknown
10:15 AM 46.4 °F 38.7 °F 30.2 °F 53% 29.70 in 10.0 mi West 20.7 mph 27.6 mph N/A   Unknown
10:35 AM 48.2 °F - 30.2 °F 50% 29.70 in 10.0 mi West 20.7 mph 26.5 mph N/A   Unknown
10:55 AM 48.2 °F - 30.2 °F 50% 29.70 in 10.0 mi West 18.4 mph 27.6 mph N/A   Unknown
11:15 AM 48.2 °F - 30.2 °F 50% 29.69 in 10.0 mi West 20.7 mph 26.5 mph N/A   Unknown
11:35 AM 50.0 °F - 30.2 °F 47% 29.68 in 1.5 mi West 17.3 mph 28.8 mph N/A   Haze
11:55 AM 50.0 °F - 30.2 °F 47% 29.68 in 10.0 mi West 20.7 mph 31.1 mph N/A   Unknown
12:15 PM 51.8 °F - 30.2 °F 44% 29.68 in 10.0 mi West 19.6 mph 26.5 mph N/A   Unknown
12:35 PM 51.8 °F - 28.4 °F 41% 29.68 in 10.0 mi West 19.6 mph 28.8 mph N/A   Unknown
12:55 PM 51.8 °F - 28.4 °F 41% 29.68 in 10.0 mi West 19.6 mph 27.6 mph N/A   Unknown
1:15 PM 53.6 °F - 28.4 °F 38% 29.68 in 10.0 mi West 25.3 mph 32.2 mph N/A   Unknown
1:55 PM 53.6 °F - 24.8 °F 33% 29.68 in 10.0 mi West 19.6 mph - N/A   Unknown
2:15 PM 55.4 °F - 24.8 °F 31% 29.68 in 10.0 mi West 19.6 mph 28.8 mph N/A   Unknown
2:35 PM 53.6 °F - 26.6 °F 35% 29.68 in 10.0 mi West 20.7 mph 29.9 mph N/A   Unknown
2:55 PM 53.6 °F - 26.6 °F 35% 29.69 in 10.0 mi WNW 20.7 mph 28.8 mph N/A   Unknown
3:15 PM 55.4 °F - 26.6 °F 33% 29.69 in 10.0 mi West 20.7 mph 25.3 mph N/A   Unknown
3:35 PM 55.4 °F - 26.6 °F 33% 29.69 in 10.0 mi WNW 21.9 mph 31.1 mph N/A   Unknown
3:55 PM 53.6 °F - 26.6 °F 35% 29.69 in 10.0 mi WNW 23.0 mph 31.1 mph N/A   Unknown
4:15 PM 53.6 °F - 26.6 °F 35% 29.69 in 10.0 mi West 20.7 mph 28.8 mph N/A   Unknown
4:35 PM 53.6 °F - 26.6 °F 35% 29.69 in 10.0 mi West 19.6 mph 29.9 mph N/A   Unknown
4:55 PM 53.6 °F - 26.6 °F 35% 29.70 in 10.0 mi West 16.1 mph 24.2 mph N/A   Unknown
5:15 PM 53.6 °F - 26.6 °F 35% 29.70 in 10.0 mi West 12.7 mph 21.9 mph N/A   Unknown
5:35 PM 53.6 °F - 26.6 °F 35% 29.71 in 10.0 mi West 13.8 mph 23.0 mph N/A   Unknown
5:55 PM 51.8 °F - 26.6 °F 38% 29.71 in 10.0 mi West 13.8 mph - N/A   Unknown
6:15 PM 50.0 °F - 26.6 °F 40% 29.71 in 10.0 mi West 10.4 mph - N/A   Unknown
6:35 PM 48.2 °F - 28.4 °F 46% 29.72 in 10.0 mi West 6.9 mph - N/A   Unknown
7:15 PM 48.2 °F - 28.4 °F 46% 29.72 in 10.0 mi WNW 8.1 mph - N/A   Unknown
7:35 PM 48.2 °F - 28.4 °F 46% 29.73 in 10.0 mi West 8.1 mph - N/A   Unknown
7:55 PM 48.2 °F - 26.6 °F 43% 29.73 in 10.0 mi West 11.5 mph 16.1 mph N/A   Unknown
8:15 PM 48.2 °F - 24.8 °F 40% 29.73 in 10.0 mi West 11.5 mph - N/A   Unknown
8:35 PM 48.2 °F - 24.8 °F 40% 29.73 in 10.0 mi West 10.4 mph - N/A   Unknown
8:55 PM 46.4 °F 41.1 °F 24.8 °F 43% 29.73 in 10.0 mi West 11.5 mph - N/A   Unknown
9:15 PM 48.2 °F - 24.8 °F 40% 29.74 in 10.0 mi West 9.2 mph - N/A   Unknown
9:35 PM 48.2 °F - 24.8 °F 40% 29.74 in 10.0 mi West 9.2 mph - N/A   Unknown
9:55 PM 48.2 °F - 24.8 °F 40% 29.74 in 10.0 mi West 9.2 mph - N/A   Unknown
10:15 PM 46.4 °F 42.9 °F 26.6 °F 46% 29.75 in 10.0 mi West 6.9 mph - N/A   Unknown
10:35 PM 46.4 °F 43.5 °F 26.6 °F 46% 29.75 in 10.0 mi WNW 5.8 mph - N/A   Unknown
10:55 PM 46.4 °F 43.5 °F 26.6 °F 46% 29.76 in 10.0 mi WNW 5.8 mph - N/A   Unknown
11:15 PM 46.4 °F 43.5 °F 30.2 °F 53% 29.76 in 10.0 mi NW 5.8 mph - N/A   Unknown
11:35 PM 46.4 °F 45.2 °F 30.2 °F 53% 29.76 in 10.0 mi NW 3.5 mph - N/A   Unknown